Philadelphia, PA

6:58 AM EDT on June 18, 2019 (GMT -0400)
Philadelphia International

Weather History for KPHL - May, 2019

Change the Weather History Date:

Sunday, May 19, 2019

  Actual Average Record
Temperature  
Mean Temperature 73 °F 65 °F  
Max Temperature 85 °F 75 °F 96 °F (1962)
Min Temperature 60 °F 55 °F 41 °F (1882)
Degree Days  
Heating Degree Days 0 3  
Month to date heating degree days 74 87  
Since 1 July heating degree days 4359 4577  
Cooling Degree Days 8 3  
Month to date cooling degree days 29 31  
Year to date cooling degree days 53 44  
Growing Degree Days 22 (Base 50)    
Moisture  
Dew Point 62 °F    
Average Humidity 71    
Maximum Humidity 84    
Minimum Humidity 58    
Precipitation  
Precipitation 0.00 in 0.12 in 2.36 in (1900)
Month to date precipitation 3.87 2.20  
Year to date precipitation 17.93 15.23  
Snow  
Snow 0.00 in 0.00 in 0.00 in ()
Month to date snowfall 0.0 0.0  
Since 1 July snowfall 17.1 22.4  
Snow Depth 0.00 in    
Sea Level Pressure  
Sea Level Pressure 30.00 in    
Wind  
Wind Speed 8 mph (SSE)    
Max Wind Speed 17 mph    
Max Gust Speed 25 mph    
Visibility 10 miles    
Events      
T = Trace of Precipitation, MM = Missing Value Source: NWS Daily Summary

Daily Weather History Graph

Daily Weather History Graph

Search for Another Location

Airport or City:

Astronomy

May. 19, 2019 Rise Set
Actual Time 5:42 AM EDT 8:12 PM EDT
Civil Twilight 5:11 AM EDT 8:43 PM EDT
Nautical Twilight 4:33 AM EDT 9:22 PM EDT
Astronomical Twilight 3:50 AM EDT 10:05 PM EDT
Moon 9:10 PM EDT (5/19) 6:26 AM EDT (5/19)
Length of Visible Light 15h 31m
Length of Day
14h 29m
Full, 99% of the Moon is Illuminated
May 19
Full
May 26
Last Quarter
Jun 3
New
Jun 10
First Quarter
Jun 17
Full

Hourly Weather History & Observations

Time (EDT) Temp. Heat Index Dew Point Humidity Pressure Visibility Wind Dir Wind Speed Gust Speed Precip Events Conditions
12:54 AM 62.1 °F - 52.0 °F 70% 30.08 in 10.0 mi South 3.5 mph - N/A   Scattered Clouds
1:54 AM 60.1 °F - 53.1 °F 78% 30.06 in 10.0 mi Calm Calm - N/A   Scattered Clouds
2:54 AM 61.0 °F - 54.0 °F 78% 30.06 in 10.0 mi Calm Calm - N/A   Mostly Cloudy
3:54 AM 62.1 °F - 55.0 °F 78% 30.07 in 10.0 mi Calm Calm - N/A   Mostly Cloudy
4:54 AM 61.0 °F - 55.9 °F 83% 30.06 in 10.0 mi SE 5.8 mph - N/A   Overcast
5:54 AM 61.0 °F - 55.0 °F 81% 30.07 in 10.0 mi East 4.6 mph - N/A   Mostly Cloudy
6:54 AM 62.1 °F - 55.9 °F 80% 30.07 in 10.0 mi East 5.8 mph - N/A   Mostly Cloudy
7:54 AM 64.0 °F - 55.9 °F 75% 30.07 in 10.0 mi ENE 4.6 mph - N/A   Mostly Cloudy
8:54 AM 69.1 °F - 59.0 °F 70% 30.06 in 10.0 mi ESE 3.5 mph - N/A   Scattered Clouds
9:54 AM 73.0 °F - 62.1 °F 68% 30.05 in 10.0 mi Variable 4.6 mph - N/A   Scattered Clouds
10:54 AM 77.0 °F - 63.0 °F 62% 30.04 in 10.0 mi South 8.1 mph - N/A   Scattered Clouds
11:54 AM 81.0 °F 82.7 °F 64.9 °F 58% 30.03 in 10.0 mi South 13.8 mph - N/A   Scattered Clouds
12:54 PM 82.9 °F 85.4 °F 66.9 °F 58% 30.01 in 10.0 mi SSW 13.8 mph 23.0 mph N/A   Scattered Clouds
1:54 PM 84.0 °F 87.0 °F 68.0 °F 58% 29.99 in 10.0 mi South 13.8 mph - N/A   Scattered Clouds
2:54 PM 84.0 °F 87.0 °F 68.0 °F 58% 29.98 in 10.0 mi South 12.7 mph - N/A   Scattered Clouds
3:54 PM 84.0 °F 87.8 °F 69.1 °F 61% 29.94 in 10.0 mi South 11.5 mph - N/A   Scattered Clouds
4:54 PM 84.0 °F 87.8 °F 69.1 °F 61% 29.92 in 10.0 mi South 12.7 mph 20.7 mph N/A   Scattered Clouds
5:54 PM 82.9 °F 86.5 °F 69.1 °F 63% 29.90 in 10.0 mi South 16.1 mph 20.7 mph N/A   Scattered Clouds
6:54 PM 81.0 °F 83.8 °F 68.0 °F 65% 29.90 in 10.0 mi SSE 6.9 mph - N/A   Mostly Cloudy
7:54 PM 78.1 °F - 68.0 °F 71% 29.90 in 10.0 mi SSE 10.4 mph - N/A   Mostly Cloudy
8:54 PM 75.9 °F - 66.9 °F 74% 29.90 in 10.0 mi SSE 9.2 mph - N/A   Mostly Cloudy
9:54 PM 75.0 °F - 66.0 °F 73% 29.91 in 10.0 mi South 8.1 mph - N/A   Mostly Cloudy
10:54 PM 75.0 °F - 66.0 °F 73% 29.92 in 10.0 mi SSW 6.9 mph - N/A   Overcast
11:54 PM 73.9 °F - 64.9 °F 73% 29.91 in 10.0 mi Variable 3.5 mph - N/A   Overcast